FLOCK 1E-10

Last updated on Aug. 10, 2016, 1:37 a.m. UTC

1 40737U 98067GP  16222.67724861  .26594290  12566-4  63798-3 0  9992
2 40737  51.6047  96.3055 0008789 274.7108  85.4393 16.45560075 61621

Satellite is not in orbit.